• In Uzbekistan
  • List of Countries
  • For 7 days
  • Water Temperature
  • Satellite Maps
  • Weather Map
  • Weather Widgets
  • user-avatar
    Login

    Hourly Weather Tabarka

    Today, 18 October, Thursday

    Time Temperature Precipitation Wind Pressure Humidity
    00:00 +18°C° 1.3 mm 2 mps 704 mmHg 85%
    01:00 +17°C° 0 mm 2 mps 704 mmHg 86%
    02:00 +17°C° 1 mm 2 mps 703 mmHg 86%
    03:00 +17°C° 1 mm 2 mps 703 mmHg 86%
    04:00 +17°C° 1 mm 2 mps 703 mmHg 85%
    05:00 +17°C° 0 mm 2 mps 703 mmHg 86%
    06:00 +16°C° 0 mm 2 mps 703 mmHg 88%
    07:00 +16°C° 0 mm 2 mps 702 mmHg 88%
    08:00 +17°C° 0 mm 2 mps 702 mmHg 81%
    09:00 +18°C° 0 mm 2 mps 703 mmHg 74%
    10:00 +21°C° 0 mm 1 mps 703 mmHg 67%
    11:00 +22°C° 0 mm 1 mps 703 mmHg 62%
    12:00 +23°C° 0 mm 1 mps 703 mmHg 57%
    13:00 +24°C° 0 mm 1 mps 703 mmHg 52%
    14:00 +24°C° 0 mm 1 mps 703 mmHg 52%
    15:00 +23°C° 0 mm 2 mps 703 mmHg 52%
    16:00 +23°C° 0 mm 2 mps 703 mmHg 52%
    17:00 +21°C° 0.1 mm 2 mps 704 mmHg 58%
    18:00 +21°C° 0.1 mm 1 mps 704 mmHg 64%
    19:00 +20°C° 0.1 mm 1 mps 704 mmHg 70%
    20:00 +20°C° 0 mm 1 mps 705 mmHg 73%
    21:00 +20°C° 0 mm 1 mps 705 mmHg 75%
    22:00 +19°C° 0 mm 1 mps 706 mmHg 77%
    23:00 +17°C° 0 mm 0 mps 706 mmHg 79%

    Tomorrow, 19 October, Friday

    Time Temperature Precipitation Wind Pressure Humidity
    00:00 +17°C° 0 mm 0 mps 706 mmHg 80%
    01:00 +16°C° 0 mm 0 mps 707 mmHg 82%
    02:00 +16°C° 0 mm 0 mps 707 mmHg 83%
    03:00 +16°C° 0 mm 0 mps 707 mmHg 84%
    04:00 +18°C° 0 mm 1 mps 707 mmHg 84%
    05:00 +15°C° 0 mm 0 mps 707 mmHg 85%
    06:00 +15°C° 0 mm 0 mps 708 mmHg 85%
    07:00 +15°C° 0 mm 0 mps 708 mmHg 85%
    08:00 +19°C° 0 mm 1 mps 709 mmHg 78%
    09:00 +20°C° 0 mm 1 mps 710 mmHg 71%
    10:00 +22°C° 0 mm 1 mps 710 mmHg 64%
    11:00 +23°C° 0 mm 1 mps 711 mmHg 60%
    12:00 +24°C° 0 mm 1 mps 711 mmHg 56%
    13:00 +25°C° 0 mm 2 mps 711 mmHg 51%
    14:00 +24°C° 0 mm 2 mps 711 mmHg 52%
    15:00 +24°C° 0 mm 2 mps 711 mmHg 53%
    16:00 +24°C° 0 mm 2 mps 711 mmHg 54%
    17:00 +23°C° 0 mm 2 mps 711 mmHg 60%
    18:00 +21°C° 0 mm 2 mps 712 mmHg 66%
    19:00 +21°C° 0 mm 1 mps 712 mmHg 72%
    20:00 +21°C° 0 mm 1 mps 712 mmHg 75%
    21:00 +20°C° 0 mm 1 mps 713 mmHg 77%
    22:00 +20°C° 0 mm 1 mps 713 mmHg 80%
    23:00 +19°C° 0 mm 1 mps 713 mmHg 81%

    Day after tomorrow, 20 October, Saturday

    Time Temperature Precipitation Wind Pressure Humidity
    00:00 +19°C° 0 mm 1 mps 713 mmHg 82%
    01:00 +19°C° 0 mm 1 mps 713 mmHg 84%
    02:00 +19°C° 0 mm 1 mps 713 mmHg 85%
    03:00 +18°C° 0 mm 1 mps 713 mmHg 86%
    04:00 +18°C° 0 mm 1 mps 713 mmHg 87%
    05:00 +18°C° 0 mm 1 mps 713 mmHg 88%
    06:00 +18°C° 0 mm 1 mps 713 mmHg 88%
    07:00 +18°C° 0 mm 1 mps 714 mmHg 89%
    08:00 +19°C° 0 mm 1 mps 714 mmHg 81%
    09:00 +21°C° 0 mm 1 mps 715 mmHg 74%
    10:00 +22°C° 0 mm 1 mps 715 mmHg 66%
    11:00 +23°C° 0 mm 2 mps 715 mmHg 61%
    12:00 +24°C° 0 mm 2 mps 715 mmHg 57%
    13:00 +25°C° 0 mm 2 mps 715 mmHg 52%
    14:00 +25°C° 0 mm 3 mps 715 mmHg 52%
    15:00 +25°C° 0 mm 3 mps 714 mmHg 52%
    16:00 +25°C° 0 mm 3 mps 714 mmHg 52%
    17:00 +24°C° 0 mm 3 mps 714 mmHg 58%
    18:00 +22°C° 0 mm 3 mps 714 mmHg 64%
    19:00 +21°C° 0 mm 3 mps 714 mmHg 69%
    20:00 +20°C° 0 mm 3 mps 715 mmHg 72%
    21:00 +20°C° 0 mm 2 mps 715 mmHg 75%
    22:00 +20°C° 0 mm 2 mps 715 mmHg 77%
    23:00 +19°C° 0 mm 2 mps 715 mmHg 79%

    21 October, Sunday

    Time Temperature Precipitation Wind Pressure Humidity
    00:00 +19°C° 0 mm 2 mps 715 mmHg 80%
    01:00 +20°C° 0 mm 1 mps 714 mmHg 82%
    02:00 +19°C° 0 mm 1 mps 714 mmHg 83%
    03:00 +19°C° 0 mm 1 mps 714 mmHg 85%
    04:00 +19°C° 0 mm 1 mps 714 mmHg 86%
    05:00 +19°C° 0 mm 1 mps 714 mmHg 86%
    06:00 +18°C° 0 mm 1 mps 714 mmHg 87%
    07:00 +18°C° 0 mm 1 mps 714 mmHg 87%
    08:00 +20°C° 0 mm 1 mps 714 mmHg 79%
    09:00 +22°C° 0 mm 1 mps 715 mmHg 71%
    10:00 +23°C° 0 mm 1 mps 715 mmHg 62%
    11:00 +24°C° 0 mm 1 mps 715 mmHg 57%
    12:00 +25°C° 0 mm 1 mps 715 mmHg 51%
    13:00 +26°C° 0 mm 1 mps 715 mmHg 46%
    14:00 +26°C° 0 mm 2 mps 714 mmHg 46%
    15:00 +26°C° 0 mm 2 mps 714 mmHg 46%
    16:00 +26°C° 0 mm 2 mps 714 mmHg 46%
    17:00 +25°C° 0 mm 2 mps 714 mmHg 53%
    18:00 +23°C° 0 mm 2 mps 714 mmHg 61%
    19:00 +21°C° 0 mm 2 mps 714 mmHg 68%
    20:00 +20°C° 0 mm 2 mps 714 mmHg 72%
    21:00 +20°C° 0 mm 2 mps 714 mmHg 75%
    22:00 +20°C° 0 mm 1 mps 714 mmHg 79%
    23:00 +20°C° 0 mm 1 mps 714 mmHg 81%

    22 October, Monday

    Time Temperature Precipitation Wind Pressure Humidity
    00:00 +20°C° 0 mm 1 mps 714 mmHg 83%
    01:00 +19°C° 0 mm 1 mps 714 mmHg 85%
    02:00 +19°C° 0 mm 1 mps 714 mmHg 86%
    03:00 +19°C° 0 mm 1 mps 714 mmHg 87%
    04:00 +18°C° 0 mm 1 mps 713 mmHg 89%
    05:00 +18°C° 0 mm 1 mps 713 mmHg 90%
    06:00 +18°C° 0 mm 1 mps 714 mmHg 90%
    07:00 +18°C° 0 mm 1 mps 714 mmHg 91%
    08:00 +19°C° 0 mm 1 mps 714 mmHg 83%
    09:00 +20°C° 0 mm 1 mps 714 mmHg 75%
    10:00 +22°C° 0 mm 1 mps 715 mmHg 68%
    11:00 +23°C° 0 mm 2 mps 714 mmHg 62%
    12:00 +23°C° 0 mm 2 mps 714 mmHg 57%
    13:00 +24°C° 0 mm 3 mps 714 mmHg 51%
    14:00 +24°C° 0 mm 3 mps 714 mmHg 51%
    15:00 +24°C° 0 mm 3 mps 714 mmHg 52%
    16:00 +24°C° 0 mm 3 mps 714 mmHg 52%
    17:00 +21°C° 0 mm 3 mps 714 mmHg 59%
    18:00 +20°C° 0 mm 2 mps 714 mmHg 66%
    19:00 +19°C° 0 mm 2 mps 714 mmHg 73%
    20:00 +19°C° 0 mm 1 mps 714 mmHg 76%
    21:00 +19°C° 0 mm 1 mps 714 mmHg 79%
    22:00 +18°C° 0 mm 1 mps 714 mmHg 82%
    23:00 +18°C° 0 mm 1 mps 714 mmHg 83%

    23 October, Tuesday

    Time Temperature Precipitation Wind Pressure Humidity
    00:00 +16°C° 0 mm 1 mps 714 mmHg 85%
    01:00 +16°C° 0 mm 1 mps 714 mmHg 86%
    02:00 +16°C° 0 mm 1 mps 714 mmHg 85%
    03:00 +15°C° 0 mm 1 mps 714 mmHg 85%
    04:00 +15°C° 0 mm 1 mps 713 mmHg 85%
    05:00 +15°C° 0 mm 1 mps 713 mmHg 85%
    06:00 +15°C° 0 mm 1 mps 713 mmHg 86%
    07:00 +15°C° 0 mm 1 mps 713 mmHg 86%
    08:00 +16°C° 0 mm 1 mps 713 mmHg 79%
    09:00 +17°C° 0 mm 2 mps 714 mmHg 71%
    10:00 +19°C° 0 mm 2 mps 714 mmHg 64%
    11:00 +20°C° 0 mm 2 mps 714 mmHg 58%
    12:00 +21°C° 0 mm 3 mps 713 mmHg 53%
    13:00 +22°C° 0 mm 3 mps 713 mmHg 47%
    14:00 +21°C° 0 mm 3 mps 713 mmHg 49%
    15:00 +21°C° 0 mm 3 mps 712 mmHg 50%
    16:00 +21°C° 0 mm 3 mps 712 mmHg 51%
    17:00 +20°C° 0 mm 3 mps 712 mmHg 58%
    18:00 +19°C° 0 mm 3 mps 712 mmHg 65%
    19:00 +17°C° 0 mm 2 mps 712 mmHg 71%
    20:00 +17°C° 0 mm 2 mps 712 mmHg 74%
    21:00 +17°C° 0 mm 2 mps 711 mmHg 76%
    22:00 +16°C° 0 mm 2 mps 711 mmHg 78%
    23:00 +16°C° 0 mm 3 mps 711 mmHg 79%
    Show more